Hourly Data Report for December 04, 2017

CARBERRY CS
MANITOBA

49°54'20.900" N
99°21'26.800" W
383.50 m
5010547
71170
WZE

Download Data

Hourly Data (December 2017)
Hourly Data Report for December 4, 2017
TIME
LST
Temp Definition
°C
Dew Point Definition
°C
Rel Hum Definition
%
Precip. Amount Definition
mm

Wind Dir Definition
10's deg

Wind Spd Definition
km/h
Visibility Definition
km
Stn Press Definition
kPa
Hmdx Definition


Wind Chill Definition


Weather Definition


00:00 -4.8 -5.8 92 0.0 3 14   96.14   -10 LegendNANA
01:00 -4.9 -5.8 93 0.0 3 18   96.11   -11 LegendNANA
02:00 -5.0 -5.8 94 0.0 3 16   96.11   -11 LegendNANA
03:00 -5.0 -5.9 94 0.0 1 16   96.08   -11 LegendNANA
04:00 -4.7 -5.8 92 0.0 36 17   96.08   -11 LegendNANA
05:00 -4.3 -5.5 91 0.0 1 14   96.15   -9 LegendNANA
06:00 -4.2 -5.2 92 0.0 36 12   96.15   -9 LegendNANA
07:00 -4.4 -5.5 92 0.6 35 13   96.18   -9 LegendNANA
08:00 -4.3 -5.7 90 0.2 36 19   96.15   -10 LegendNANA
09:00 -3.8 -5.3 89 0.0 34 16   96.21   -9 LegendNANA
10:00 -3.2 -4.8 89 0.0 33 21   96.24   -9 LegendNANA
11:00 -3.2 -5.7 83 0.0 34 21   96.28   -9 LegendNANA
12:00 -3.4 -6.3 81 0.0 33 24   96.28   -10 LegendNANA
13:00 -3.8 -7.7 75 0.0 32 24   96.26   -11 LegendNANA
14:00 -4.0 -7.7 75 0.0 31 28   96.27   -11 LegendNANA
15:00 -4.8 -7.8 79 0.0 31 30   96.30   -13 LegendNANA
16:00 -5.6 -10.0 71 0.0 30 33   96.35   -14 LegendNANA
17:00 -8.9 -12.5 75 0.0 29 22   96.43   -17 LegendNANA
18:00 -10.6 -14.1 76 0.2 28 18   96.48   -18 LegendNANA
19:00 -11.3 -15.0 74 0.0 29 18   96.48   -19 LegendNANA
20:00 -11.6 -15.8 71 0.0 29 20   96.50   -20 LegendNANA
21:00 -12.2 -16.4 70 0.0 29 24   96.51   -21 LegendNANA
22:00 -12.7 -16.5 73 0.0 29 28   96.48   -23 LegendNANA
23:00 -13.5 -17.2 74 0.0 28 26   96.47   -23 LegendNANA

Notes on Data Quality.

Legend

  • E = Estimated
  • M = Missing
  • NA = Not Available*
  • [empty] = Indicates an unobserved value
Date modified: